Regional Weather Roundup
Issued by NWS Sioux Falls, SD

Home | Current Version | Previous Version | Text Only | Print | Product List | Glossary On
Versions: 1 2 3 4 5 6 7 8 9 10 11 12 13 14 15 16 17 18 19 20 21 22 23 24 25 26 27 28 29 30 31 32 33 34 35 36 37 38 39 40 41 42 43 44 45 46 47 48 49 50
000
ASUS43 KFSD 230110
RWRFSD

WEATHER ROUNDUP FOR SE SOUTH DAKOTA/SW MINNESOTA/NW IOWA
NATIONAL WEATHER SERVICE SIOUX FALLS SD
800 PM CDT MON SEP 22 2014

NOTE: "FAIR" INDICATES FEW OR NO CLOUDS BELOW 12,000 FEET WITH NO
SIGNIFICANT WEATHER AND OR OBSTRUCTIONS TO VISIBILITY.


SDZ038>040-050-052>070-230200-
SOUTHEAST SOUTH DAKOTA

CITY           SKY/WX    TMP DP  RH WIND       PRES   REMARKS
CHAMBERLAIN    CLOUDY    66  50  57 S8        30.05R
HURON          PTCLDY    68  48  48 S9        30.06R
MADISON        FAIR      63  48  59 S7        30.13S
MITCHELL       MOCLDY    68  50  52 SE14      30.08F
SIOUX FALLS    MOCLDY    66  49  54 S10       30.13S
WINNER         FAIR      66  52  60 S23G30    30.05S
YANKTON        CLOUDY    64  52  63 SE9       30.13R
$$

MNZ071-072-080-081-089-090-097-098-230200-
SOUTHWEST MINNESOTA

CITY           SKY/WX    TMP DP  RH WIND       PRES   REMARKS
FAIRMONT       PTCLDY    61  46  59 S5        30.18R
JACKSON        CLEAR     61  46  59 S6        30.18F
LUVERNE        PTCLDY    61  46  59 S3        30.16S
MARSHALL       PTCLDY    63  46  55 S6        30.13S
MONTEVIDEO     PTCLDY    63  48  59 SW5       30.13S
PIPESTONE      PTCLDY    61  46  59 S7        30.15S
REDWOOD FALLS  PTCLDY    64  49  57 S6        30.13S
TRACY          PTCLDY    62  49  62 CALM      30.15R
WINDOM         PTCLDY    63  48  59 S5        30.17S
WORTHINGTON    PTCLDY    61  46  59 S6        30.18S
$$

IAZ001>003-012>014-020>022-031-032-NEZ013-014-SDZ071-230200-
NORTHWEST IOWA

CITY           SKY/WX    TMP DP  RH WIND       PRES   REMARKS
CHEROKEE       MOCLDY    59  53  82 S3        30.18S
DENISON        PTCLDY    59  55  88 SE6       30.18R
ESTHERVILLE    CLEAR     57  49  74 S5        30.18R
LE MARS          N/A     64  52  63 SE8       30.16S
ORANGE CITY    MOCLDY    64  48  55 SE5       30.17S
SHELDON        MOCLDY    59  50  72 S7        30.16S
SIOUX CITY     MOCLDY    65  50  58 SE5       30.16F
SPENCER        PTCLDY    59  50  72 S6        30.18S
$$

ABBREVIATIONS USED IN REMARKS
   TC - TEMPERATURE IN CELSIUS
  WCI - WIND CHILL INDEX
   HX - HEAT INDEX
  VSB - VISIBILITY




USA.gov is the U.S. government's official web portal to all federal, state and local government web resources and services.